Location: Bakov nad Jizerou
(50.4784°N, 14.9394°E)
Time: 16:38:32
(UTC+00:00)

Cosmos 2322 - Pass Details

Date: 29 October 2021
Orbit: 841 x 854 km, 71.0° (Epoch: 04 December)

Event Time Altitude Azimuth Distance (km) Brightness Sun altitude
Rises 17:38:08 0° 199° (SSW) 3,410 7.1 -19.1°
Reaches altitude 10° 17:40:34 10° 198° (SSW) 2,478 6.3 -19.5°
Maximum altitude 17:46:14 71° 115° (ESE) 903 3.6 -20.4°
Enters shadow 17:50:25 19° 35° (NE) 1,929 5.3 -21.1°
